User: anonymous   Login
Location: Sawmill Trailhead
(33.5800°N, 116.4497°W)
Time: 12:17:14
(UTC-07:00)
Language:

Uosat F - Orbit

View from above orbital plane
View from above orbital plane
View from above satellite
View from above satellite

Ground track
Ground track

The orbit data is extracted from the following two-line orbital elements,

1 21575U 91050B   16124.89820361  .00000080  00000-0  39537-4 0  9995
2 21575  98.7606 125.3871 0008477  80.0217 280.1927 14.40735278302341
Epoch (UTC): 03 May 2016 21:33:24
Eccentricity: 0.0008477
inclination: 98.7606°
perigee height: 750 km
apogee height: 762 km
right ascension of ascending node: 125.3871°
argument of perigee: 80.0217°
revolutions per day: 14.40735278
mean anomaly at epoch: 280.1927°
orbit number at epoch: 30234

The dashed part of the orbit path shows where the satellite is in the earth's shadow,  

DLR